User: anonymous   Login
Location: Newark
(34.5992°S, 58.3747°W)
Time: 06:14:42
(UTC+00:00)
Language:

STARLINK-1039 - Orbit

View from above orbital plane
View from above orbital plane
View from above satellite
View from above satellite

Ground track
Ground track

The orbit data is extracted from the following two-line orbital elements,

1 44744C 19074AH  20050.19148020 -.00003126  00000-0 -21409-3 0   507
2 44744  52.9970  69.9337 0001563  63.5065 252.4961 15.05586788    17
Epoch (UTC): 19 February 2020 04:35:43
Eccentricity: 0.0001563
inclination: 52.9970°
perigee height: 548 km
apogee height: 551 km
right ascension of ascending node: 69.9337°
argument of perigee: 63.5065°
revolutions per day: 15.05586788
mean anomaly at epoch: 252.4961°
orbit number at epoch: 1

The dashed part of the orbit path shows where the satellite is in the earth's shadow,  

DLR